| time (UTC) | temp F | wind direction | speed MPH | gust MPH | rain 1hr in | rain 24hr in | rain mn in | humidity % | barometer mb |
| 20260505005909 | 51 | 46 | 0.0 | 0.0 | 0.00 | 0.00 | 0.00 | 87 | 1013.3 |
| 20260505005405 | 51 | 46 | 0.0 | 0.0 | 0.00 | 0.00 | 0.00 | 87 | 1013.4 |
| 20260505004405 | 51 | 43 | 0.0 | 0.0 | 0.00 | 0.00 | 0.00 | 87 | 1013.5 |
| 20260505003903 | 51 | 84 | 0.0 | 0.0 | 0.00 | 0.00 | 0.00 | 87 | 1013.5 |
| 20260505003406 | 51 | 86 | 0.0 | 0.0 | 0.00 | 0.00 | 0.00 | 87 | 1013.5 |
| 20260505002904 | 51 | 61 | 0.0 | 1.0 | 0.00 | 0.00 | 0.00 | 87 | 1013.4 |
| 20260505002405 | 51 | 128 | 0.0 | 1.0 | 0.00 | 0.00 | 0.00 | 87 | 1013.5 |
| 20260505001912 | 51 | 69 | 0.0 | 0.0 | 0.00 | 0.00 | 0.00 | 87 | 1013.7 |
| 20260505001339 | 51 | 44 | 0.0 | 0.0 | 0.00 | 0.00 | 0.00 | 87 | 1013.7 |
| 20260505000825 | 51 | 39 | 0.0 | 0.0 | 0.00 | 0.00 | 0.00 | 87 | 1013.7 |
| 20260505000312 | 51 | 103 | 0.0 | 0.0 | 0.00 | 0.00 | 0.00 | 87 | 1013.8 |
| 20260504235806 | 51 | 103 | 0.0 | 0.0 | 0.00 | 0.00 | 0.00 | 87 | 1013.9 |
| 20260504235308 | 51 | 63 | 0.0 | 0.0 | 0.00 | 0.00 | 0.00 | 87 | 1013.9 |
| 20260504234807 | 51 | 49 | 0.0 | 0.0 | 0.00 | 0.00 | 0.00 | 87 | 1013.9 |
| 20260504234306 | 51 | 49 | 0.0 | 0.0 | 0.00 | 0.00 | 0.00 | 87 | 1013.9 |
| 20260504233807 | 51 | 47 | 0.0 | 0.0 | 0.00 | 0.00 | 0.00 | 87 | 1013.9 |
| 20260504232733 | 51 | 233 | 0.0 | 0.0 | 0.00 | 0.00 | 0.00 | 87 | 1014.0 |
| 20260504232232 | 52 | 233 | 0.0 | 0.0 | 0.00 | 0.00 | 0.00 | 87 | 1014.0 |
| 20260504231733 | 52 | 229 | 0.0 | 0.0 | 0.00 | 0.00 | 0.00 | 87 | 1014.0 |
| 20260504231207 | 52 | 230 | 0.0 | 0.0 | 0.00 | 0.00 | 0.00 | 87 | 1014.0 |
| 20260504230706 | 52 | 73 | 0.0 | 1.0 | 0.00 | 0.00 | 0.00 | 88 | 1014.0 |
| 20260504230207 | 52 | 73 | 0.0 | 1.0 | 0.00 | 0.00 | 0.00 | 87 | 1014.1 |
| 20260504225708 | 52 | 75 | 0.0 | 1.0 | 0.00 | 0.00 | 0.00 | 87 | 1014.1 |
| 20260504225205 | 52 | 25 | 0.0 | 1.0 | 0.00 | 0.00 | 0.00 | 87 | 1014.1 |
| 20260504224707 | 52 | 76 | 0.0 | 0.0 | 0.00 | 0.00 | 0.00 | 87 | 1014.2 |
| 20260504224209 | 52 | 56 | 0.0 | 1.0 | 0.00 | 0.00 | 0.00 | 87 | 1014.3 |
| 20260504223705 | 52 | 78 | 0.0 | 1.0 | 0.00 | 0.00 | 0.00 | 87 | 1014.3 |
| 20260504222643 | 52 | 83 | 0.0 | 0.0 | 0.00 | 0.00 | 0.00 | 87 | 1014.3 |
| 20260504222154 | 52 | 302 | 0.0 | 1.0 | 0.00 | 0.00 | 0.00 | 87 | 1014.4 |
| 20260504220631 | 52 | 167 | 0.0 | 1.0 | 0.00 | 0.00 | 0.00 | 87 | 1014.5 |
| 20260504220132 | 52 | 44 | 0.0 | 1.0 | 0.00 | 0.00 | 0.00 | 87 | 1014.5 |
| 20260504215633 | 52 | 48 | 0.0 | 1.0 | 0.00 | 0.00 | 0.00 | 87 | 1014.5 |
| 20260504215135 | 52 | 62 | 0.0 | 0.0 | 0.00 | 0.00 | 0.00 | 87 | 1014.5 |
| 20260504214634 | 53 | 82 | 0.0 | 0.0 | 0.00 | 0.00 | 0.00 | 87 | 1014.5 |
| 20260504214132 | 53 | 47 | 0.0 | 0.0 | 0.00 | 0.00 | 0.00 | 87 | 1014.5 |
| 20260504213633 | 53 | 37 | 0.0 | 1.0 | 0.00 | 0.00 | 0.00 | 87 | 1014.5 |
| 20260504213134 | 53 | 290 | 0.0 | 1.0 | 0.00 | 0.00 | 0.00 | 87 | 1014.5 |
| 20260504212610 | 53 | 38 | 0.0 | 1.0 | 0.00 | 0.00 | 0.00 | 87 | 1014.5 |
| 20260504211608 | 53 | 27 | 0.0 | 1.0 | 0.00 | 0.00 | 0.00 | 87 | 1014.5 |
| 20260504211039 | 53 | 49 | 0.0 | 1.0 | 0.00 | 0.00 | 0.00 | 87 | 1014.5 |
| 20260504210534 | 53 | 110 | 0.0 | 1.0 | 0.00 | 0.00 | 0.00 | 87 | 1014.5 |
| 20260504210034 | 53 | 49 | 0.0 | 1.0 | 0.00 | 0.00 | 0.00 | 87 | 1014.5 |
| 20260504205537 | 53 | 312 | 0.0 | 1.0 | 0.00 | 0.00 | 0.00 | 87 | 1014.5 |
| 20260504205033 | 53 | 22 | 0.0 | 1.0 | 0.00 | 0.00 | 0.00 | 87 | 1014.4 |
| 20260504204523 | 53 | 70 | 0.0 | 1.0 | 0.00 | 0.00 | 0.00 | 87 | 1014.5 |
| 20260504204010 | 53 | 37 | 0.0 | 0.0 | 0.00 | 0.00 | 0.00 | 87 | 1014.5 |
| 20260504203450 | 53 | 207 | 0.0 | 0.0 | 0.00 | 0.00 | 0.00 | 86 | 1014.5 |
| 20260504202438 | 53 | 66 | 0.0 | 0.0 | 0.00 | 0.00 | 0.00 | 86 | 1014.5 |
| 20260504201936 | 53 | 76 | 0.0 | 0.0 | 0.00 | 0.00 | 0.00 | 86 | 1014.4 |
| 20260504200908 | 53 | 67 | 0.0 | 2.0 | 0.00 | 0.00 | 0.00 | 86 | 1014.4 |
| 20260504200406 | 53 | 63 | 0.0 | 1.0 | 0.00 | 0.00 | 0.00 | 87 | 1014.3 |
| 20260504195909 | 53 | 1 | 0.0 | 1.0 | 0.00 | 0.00 | 0.00 | 87 | 1014.3 |
| 20260504195407 | 53 | 75 | 0.0 | 1.0 | 0.00 | 0.00 | 0.00 | 87 | 1014.3 |
| 20260504194345 | 53 | 327 | 0.0 | 1.0 | 0.00 | 0.00 | 0.00 | 87 | 1014.2 |
| 20260504193838 | 54 | 223 | 0.0 | 1.0 | 0.00 | 0.00 | 0.00 | 87 | 1014.2 |
| 20260504193335 | 54 | 44 | 0.0 | 0.0 | 0.00 | 0.00 | 0.00 | 87 | 1014.1 |
| 20260504192833 | 54 | 44 | 0.0 | 1.0 | 0.00 | 0.00 | 0.00 | 87 | 1014.1 |
| 20260504192332 | 54 | 37 | 0.0 | 1.0 | 0.00 | 0.00 | 0.00 | 87 | 1014.1 |
| 20260504191838 | 54 | 94 | 0.0 | 0.0 | 0.00 | 0.00 | 0.00 | 87 | 1014.2 |
| 20260504190314 | 54 | 51 | 0.0 | 0.0 | 0.00 | 0.00 | 0.00 | 87 | 1014.0 |
| 20260504185312 | 55 | 93 | 0.0 | 0.0 | 0.00 | 0.00 | 0.00 | 87 | 1013.9 |
| 20260504184934 | 55 | 56 | 0.0 | 0.0 | 0.00 | 0.00 | 0.00 | 87 | 1013.9 |
| 20260504183905 | 55 | 65 | 0.0 | 1.0 | 0.00 | 0.00 | 0.00 | 87 | 1013.9 |
| 20260504182857 | 55 | 51 | 0.0 | 1.0 | 0.00 | 0.00 | 0.00 | 87 | 1013.8 |
| 20260504181837 | 55 | 96 | 0.0 | 0.0 | 0.00 | 0.00 | 0.00 | 87 | 1013.8 |
| 20260504180836 | 55 | 77 | 0.0 | 0.0 | 0.00 | 0.00 | 0.00 | 87 | 1013.8 |
| 20260504180333 | 55 | 90 | 0.0 | 0.0 | 0.00 | 0.00 | 0.00 | 87 | 1013.9 |
| 20260504175833 | 55 | 93 | 0.0 | 1.0 | 0.00 | 0.00 | 0.00 | 87 | 1014.0 |
| 20260504175336 | 56 | 60 | 0.0 | 1.0 | 0.00 | 0.00 | 0.00 | 86 | 1014.0 |
| 20260504174832 | 56 | 105 | 0.0 | 1.0 | 0.00 | 0.00 | 0.00 | 86 | 1014.0 |
| 20260504173824 | 56 | 41 | 0.0 | 1.0 | 0.00 | 0.00 | 0.00 | 86 | 1014.0 |
| 20260504173308 | 56 | 127 | 0.0 | 0.0 | 0.00 | 0.00 | 0.00 | 85 | 1013.9 |
| 20260504172809 | 56 | 83 | 0.0 | 1.0 | 0.00 | 0.00 | 0.00 | 86 | 1013.9 |
| 20260504171806 | 56 | 91 | 0.0 | 1.0 | 0.00 | 0.00 | 0.00 | 85 | 1013.8 |
| 20260504171309 | 56 | 27 | 0.0 | 2.0 | 0.00 | 0.00 | 0.00 | 85 | 1013.8 |
| 20260504170804 | 57 | 127 | 0.0 | 2.0 | 0.00 | 0.00 | 0.00 | 85 | 1013.8 |
| 20260504160207 | 58 | 305 | 0.0 | 2.0 | 0.00 | 0.00 | 0.00 | 84 | 1013.7 |
| 20260504150705 | 59 | 148 | 0.0 | 2.0 | 0.00 | 0.00 | 0.00 | 83 | 1013.7 |
| 20260504150211 | 59 | 224 | 0.0 | 2.0 | 0.00 | 0.00 | 0.00 | 83 | 1013.8 |
| 20260504140638 | 60 | 56 | 0.0 | 4.0 | 0.00 | 0.00 | 0.00 | 83 | 1013.8 |
| 20260504140132 | 61 | 68 | 0.0 | 1.0 | 0.00 | 0.00 | 0.00 | 84 | 1013.8 |
| 20260504130516 | 61 | 32 | 0.0 | 1.0 | 0.00 | 0.00 | 0.00 | 86 | 1013.9 |
| 20260504100205 | 57 | 42 | 0.0 | 0.0 | 0.00 | 0.10 | 0.00 | 91 | 1013.9 |
| 20260504081957 | 57 | 41 | 0.0 | 0.0 | 0.00 | 0.11 | 0.00 | 92 | 1013.2 |
| 20260504081434 | 57 | 41 | 0.0 | 0.0 | 0.00 | 0.11 | 0.00 | 92 | 1013.2 |
| 20260504080935 | 57 | 41 | 0.0 | 0.0 | 0.00 | 0.11 | 0.00 | 92 | 1013.1 |
| 20260504080435 | 57 | 41 | 0.0 | 0.0 | 0.00 | 0.11 | 0.00 | 92 | 1013.0 |
| 20260504070335 | 56 | 41 | 0.0 | 0.0 | 0.00 | 0.11 | 0.00 | 92 | 1012.6 |
| 20260504050632 | 55 | 259 | 0.0 | 0.0 | 0.00 | 0.11 | 0.00 | 92 | 1011.9 |
| 20260504050135 | 55 | 271 | 0.0 | 0.0 | 0.00 | 0.12 | 0.00 | 92 | 1011.8 |
| 20260504045649 | 55 | 271 | 0.0 | 0.0 | 0.00 | 0.12 | 0.00 | 92 | 1011.6 |
| 20260504045134 | 55 | 271 | 0.0 | 0.0 | 0.00 | 0.12 | 0.00 | 92 | 1011.6 |
| 20260504044106 | 55 | 271 | 0.0 | 0.0 | 0.00 | 0.12 | 0.00 | 92 | 1011.6 |
| 20260504043608 | 55 | 271 | 0.0 | 1.0 | 0.00 | 0.12 | 0.00 | 92 | 1011.5 |
| 20260504043108 | 55 | 271 | 0.0 | 1.0 | 0.00 | 0.12 | 0.00 | 92 | 1011.6 |
| 20260504042540 | 55 | 86 | 0.0 | 0.0 | 0.00 | 0.12 | 0.00 | 92 | 1011.6 |
| 20260504042034 | 55 | 79 | 0.0 | 0.0 | 0.00 | 0.12 | 0.00 | 92 | 1011.6 |
| 20260504041028 | 55 | 78 | 0.0 | 0.0 | 0.00 | 0.12 | 0.00 | 92 | 1011.6 |
| 20260504040527 | 55 | 79 | 0.0 | 0.0 | 0.00 | 0.12 | 0.00 | 92 | 1011.6 |
| 20260504040027 | 55 | 78 | 0.0 | 0.0 | 0.00 | 0.12 | 0.00 | 92 | 1011.5 |
| 20260504035519 | 55 | 78 | 0.0 | 0.0 | 0.00 | 0.13 | 0.00 | 92 | 1011.5 |
| 20260504035018 | 55 | 78 | 0.0 | 0.0 | 0.00 | 0.13 | 0.00 | 92 | 1011.4 |
| 20260504034518 | 55 | 79 | 0.0 | 0.0 | 0.00 | 0.13 | 0.00 | 92 | 1011.4 |
| 20260504034028 | 55 | 78 | 0.0 | 0.0 | 0.00 | 0.13 | 0.00 | 92 | 1011.4 |
| 20260504033518 | 55 | 78 | 0.0 | 0.0 | 0.00 | 0.13 | 0.00 | 92 | 1011.5 |
| 20260504033010 | 55 | 78 | 0.0 | 0.0 | 0.00 | 0.13 | 0.00 | 92 | 1011.5 |
| 20260504032020 | 54 | 78 | 0.0 | 0.0 | 0.00 | 0.14 | 0.00 | 92 | 1011.6 |
| 20260504031520 | 54 | 78 | 0.0 | 0.0 | 0.00 | 0.14 | 0.00 | 92 | 1011.6 |
| 20260504031021 | 54 | 78 | 0.0 | 0.0 | 0.00 | 0.14 | 0.00 | 92 | 1011.5 |
| 20260504030520 | 54 | 78 | 0.0 | 0.0 | 0.00 | 0.14 | 0.00 | 92 | 1011.4 |
| 20260504030013 | 54 | 78 | 0.0 | 0.0 | 0.00 | 0.14 | 0.00 | 92 | 1011.3 |
| 20260504025521 | 54 | 79 | 0.0 | 0.0 | 0.00 | 0.14 | 0.00 | 92 | 1011.3 |
| 20260504025018 | 54 | 79 | 0.0 | 0.0 | 0.00 | 0.14 | 0.00 | 92 | 1011.3 |
| 20260504024511 | 54 | 79 | 0.0 | 0.0 | 0.00 | 0.14 | 0.00 | 92 | 1011.3 |
| 20260504024013 | 54 | 63 | 0.0 | 0.0 | 0.00 | 0.14 | 0.00 | 92 | 1011.2 |
| 20260504023517 | 54 | 63 | 0.0 | 0.0 | 0.00 | 0.14 | 0.00 | 92 | 1011.2 |
| 20260504022950 | 54 | 64 | 0.0 | 0.0 | 0.00 | 0.14 | 0.00 | 92 | 1011.2 |
| 20260504022450 | 54 | 63 | 0.0 | 0.0 | 0.00 | 0.14 | 0.00 | 92 | 1011.2 |
| 20260504021949 | 53 | 63 | 0.0 | 0.0 | 0.00 | 0.14 | 0.00 | 92 | 1011.2 |
| 20260504021441 | 53 | 63 | 0.0 | 0.0 | 0.00 | 0.14 | 0.00 | 92 | 1011.3 |
| 20260504020932 | 53 | 63 | 0.0 | 0.0 | 0.00 | 0.14 | 0.00 | 92 | 1011.2 |
| 20260504020437 | 53 | 63 | 0.0 | 0.0 | 0.00 | 0.14 | 0.00 | 92 | 1011.3 |
| 20260504015933 | 53 | 63 | 0.0 | 0.0 | 0.00 | 0.14 | 0.00 | 92 | 1011.3 |
| 20260504015434 | 53 | 63 | 0.0 | 0.0 | 0.00 | 0.14 | 0.00 | 92 | 1011.3 |
| 20260504014933 | 53 | 63 | 0.0 | 0.0 | 0.00 | 0.14 | 0.00 | 92 | 1011.5 |
| 20260504014409 | 53 | 63 | 0.0 | 0.0 | 0.00 | 0.14 | 0.00 | 92 | 1011.5 |
| 20260504013908 | 53 | 63 | 0.0 | 0.0 | 0.00 | 0.14 | 0.00 | 92 | 1011.5 |
| 20260504013408 | 53 | 70 | 0.0 | 1.0 | 0.00 | 0.14 | 0.00 | 92 | 1011.6 |
| 20260504012850 | 53 | 70 | 0.0 | 1.0 | 0.00 | 0.14 | 0.00 | 92 | 1011.6 |
| 20260504012340 | 53 | 70 | 0.0 | 1.0 | 0.00 | 0.14 | 0.00 | 92 | 1011.5 |
| 20260504011836 | 53 | 34 | 0.0 | 1.0 | 0.00 | 0.14 | 0.00 | 92 | 1011.5 |
| 20260504011333 | 53 | 55 | 0.0 | 0.0 | 0.00 | 0.14 | 0.00 | 92 | 1011.6 |
| 20260504010820 | 53 | 70 | 0.0 | 0.0 | 0.00 | 0.14 | 0.00 | 92 | 1011.5 |
| 20260504010308 | 54 | 68 | 0.0 | 0.0 | 0.00 | 0.14 | 0.00 | 92 | 1011.4 |